[[{"header":{"parameterUnit":"m.s-1","parameterCategory":1,"la1":30.2991,"la2":30.254,"lo1":-89.0895,"lo2":-89.0444,"dy":0.0017,"dx":0.0017,"nx":28,"ny":28,"refTime":"2023-11-11T09:00:00:Z","depth":0,"parameterNumber":2,"parameterNumberName":"U-component_of_WINDS"},"data":[0,0,0,0,0,0,0,0,0,0,0,0,0,0,0,0,0,0,0,0,0,0,0,0,0,0,0,0,0,0,0,0,0,0,0,0,0,0,0,0,0,0,0,0,0,0,0,0,0,0,0,0,0,0,0,0,0,0,-1.7268,-1.7269,0,-1.7274,-1.7274,-1.7274,-1.7236,-1.7235,-1.7234,-1.7233,-1.7238,-1.7239,-1.724,0,0,0,0,0,0,0,0,0,0,0,0,0,-1.7226,-1.7227,-1.7268,-1.7269,-1.7269,-1.7274,-1.7274,-1.7274,-1.7236,-1.7235,-1.7234,-1.7232,-1.7238,-1.7239,-1.724,0,0,0,0,0,0,0,0,0,0,0,0,0,-1.7239,-1.7227,-1.7268,-1.725,-1.7249,-1.7274,-1.7274,-1.7274,-1.7236,-1.7235,-1.7233,-1.7232,-1.7237,-1.7239,-1.7241,-1.7283,0,0,-1.7246,-1.7246,0,0,0,0,0,0,0,0,-1.7238,-1.7241,-1.7253,-1.7252,-1.725,-1.7252,-1.726,-1.7277,-1.7237,-1.7241,-1.7233,-1.7231,-1.7244,-1.7245,-1.725,-1.7283,-1.7283,-1.7246,-1.7247,-1.7248,-1.7248,0,0,0,0,0,0,0,-1.7238,-1.724,-1.727,-1.7253,-1.7251,-1.7242,-1.7242,-1.7263,-1.7252,-1.7241,-1.7238,-1.7239,-1.7243,-1.7248,-1.7249,-1.7283,-1.7246,-1.7247,-1.7248,-1.7249,-1.7352,-1.7353,0,0,0,0,0,0,-1.7239,-1.724,-1.727,-1.7271,-1.724,-1.7244,-1.7244,-1.7253,-1.7251,-1.7249,-1.724,-1.7237,-1.7246,-1.7248,-1.725,-1.7299,-1.7248,-1.7249,-1.725,-1.735,-1.7352,-1.7354,0,0,0,0,0,0,-1.7238,-1.7242,-1.727,-1.7254,-1.7257,-1.7246,-1.7257,-1.7254,-1.7259,-1.7251,-1.7249,-1.7248,-1.7245,-1.7247,-1.7275,-1.7299,-1.725,-1.7252,-1.7348,-1.735,-1.7353,-1.7399,0,0,0,0,0,0,-1.7237,-1.7242,-1.7258,-1.7255,-1.7258,-1.7296,-1.7258,-1.7255,-1.7262,-1.7258,-1.7257,-1.7256,-1.7244,-1.7272,-1.7276,-1.73,-1.7253,-1.7346,-1.7349,-1.7352,-1.7395,-1.7402,-1.7409,0,0,0,0,0,-1.7236,-1.7271,-1.7259,-1.7263,-1.7278,-1.7297,-1.7299,-1.7284,-1.7264,-1.728,-1.7275,-1.7256,-1.7295,-1.7276,-1.728,-1.7304,-1.7344,-1.7348,-1.7352,-1.7392,-1.7401,-1.7409,0,0,0,0,0,0,-1.7277,-1.727,-1.7257,-1.7292,-1.7296,-1.7291,-1.7311,-1.7295,-1.7304,-1.73,-1.7281,-1.7281,-1.7312,-1.7311,-1.7289,-1.7345,-1.7316,-1.7321,-1.7345,-1.7354,-1.7361,-1.7361,-1.7254,0,0,0,0,0,-1.729,-1.7306,-1.7299,-1.7331,-1.7333,-1.7322,-1.7329,-1.7318,-1.7321,-1.7322,-1.7318,-1.7322,-1.7335,-1.7344,-1.7356,-1.7394,-1.7394,-1.7413,-1.742,-1.7426,-1.7431,-1.7451,-1.746,-1.7366,-1.7366,-1.7366,0,0,-1.7318,-1.7316,-1.7327,-1.7339,-1.734,-1.7357,-1.7323,-1.7342,-1.7355,-1.7325,-1.7351,-1.7348,-1.7351,-1.7384,-1.7399,-1.7384,-1.7456,-1.7431,-1.7435,-1.7437,-1.7456,-1.7465,-1.7473,-1.7369,-1.7369,-1.7368,0,0,-1.7377,-1.7377,-1.7403,-1.7405,-1.7407,-1.7399,-1.7406,-1.7403,-1.74,-1.7426,-1.7404,-1.7418,-1.7441,-1.7444,-1.7448,-1.7508,-1.7491,-1.7512,-1.7549,-1.7569,-1.7576,-1.7583,-1.7605,-1.7613,-1.7516,-1.7517,-1.7517,0,-1.7411,-1.7436,-1.7419,-1.744,-1.7446,-1.7419,-1.7446,-1.7448,-1.7454,-1.7459,-1.7442,-1.747,-1.747,-1.7504,-1.7518,-1.7523,-1.753,-1.7513,-1.7577,-1.7583,-1.7589,-1.7609,-1.7618,-1.7519,-1.7519,-1.7519,-1.7518,0,-1.7478,-1.7495,-1.7516,-1.7523,-1.7531,-1.7555,-1.7541,-1.7552,-1.7539,-1.7533,-1.756,-1.7558,-1.7569,-1.7576,-1.7564,-1.7608,-1.7599,-1.758,-1.7551,-1.7601,-1.762,-1.7628,-1.7523,-1.7522,-1.7521,-1.7521,0,0,-1.7564,-1.756,-1.7568,-1.7571,-1.7571,-1.7585,-1.7607,-1.7617,-1.7627,-1.7631,-1.765,-1.767,-1.7652,-1.7657,-1.7645,-1.7663,-1.7711,-1.7641,-1.7641,-1.7655,-1.776,-1.7775,-1.7785,-1.7699,-1.77,-1.7701,-1.776,0,-1.7622,-1.7661,-1.7646,-1.7685,-1.7701,-1.7676,-1.7695,-1.7697,-1.7692,-1.7705,-1.7698,-1.7713,-1.7688,-1.7691,-1.7707,-1.7701,-1.7732,-1.7697,-1.7716,-1.7717,-1.7718,-1.7794,-1.7811,-1.7867,-1.7767,-1.7768,-1.7769,0,-1.7696,-1.7703,-1.7745,-1.7742,-1.7748,-1.7766,-1.7775,-1.7787,-1.7789,-1.7783,-1.7789,-1.7773,-1.7794,-1.7764,-1.7794,-1.7771,-1.7778,-1.7776,-1.7778,-1.778,-1.7747,-1.78,-1.7884,-1.7893,-1.7781,-1.778,-1.7779,0,-1.7756,-1.7776,-1.7804,-1.7806,-1.7804,-1.7817,-1.7816,-1.7817,-1.7824,-1.7831,-1.7836,-1.7845,-1.7851,-1.7859,-1.7846,-1.7825,-1.7878,-1.7846,-1.7875,-1.7875,-1.7888,-1.7887,-1.7975,-1.7891,-1.789,-1.789,-1.789,0,-1.7823,-1.7849,-1.7831,-1.7848,-1.7876,-1.7859,-1.7888,-1.7884,-1.7884,-1.79,-1.7878,-1.7893,-1.7875,-1.7888,-1.7878,-1.7905,-1.7907,-1.7904,-1.7901,-1.7906,-1.7907,-1.7912,-1.7908,-1.7892,-1.7892,-1.7892,-1.7891,0,-1.7895,-1.7884,-1.7912,-1.7907,-1.7906,-1.7928,-1.7923,-1.7939,-1.7931,-1.7952,-1.7955,-1.7944,-1.7959,-1.7946,-1.796,-1.7953,-1.7989,-1.798,-1.7989,-1.7987,-1.8016,-1.8014,-1.8111,-1.8123,-1.8029,-1.803,-1.8031,0,-1.794,-1.796,-1.7956,-1.7965,-1.7966,-1.7981,-1.7988,-1.7971,-1.798,-1.7983,-1.7999,-1.8011,-1.8021,-1.8045,-1.8038,-1.8049,-1.8041,-1.8074,-1.8043,-1.8048,-1.8043,-1.8042,-1.8044,-1.8081,-1.8082,-1.8083,-1.8084,0,-1.802,-1.8013,-1.8025,-1.8034,-1.8043,-1.805,-1.8055,-1.8063,-1.8046,-1.8057,-1.8072,-1.8079,-1.8093,-1.8106,-1.8115,-1.8114,-1.8097,-1.8093,-1.8101,-1.8107,-1.8112,-1.8111,-1.8007,-1.8092,-1.8091,-1.809,-1.809,-1.809,-1.8081,-1.8097,-1.8098,-1.8111,-1.8113,-1.8118,-1.8132,-1.8126,-1.8138,-1.8149,-1.8138,-1.8156,-1.8157,-1.8166,-1.8167,-1.8181,-1.8167,-1.8178,-1.8181,-1.8184,-1.8188,-1.8109,-1.8183,-1.8182,-1.8182,-1.8182,-1.8182,0,-1.8161,-1.8159,-1.8172,-1.8179,-1.819,-1.8171,-1.8176,-1.8186,-1.8202,-1.8204,-1.8214,-1.8231,-1.8244,-1.8237,-1.8248,-1.826,-1.8253,-1.8264,-1.8264,-1.8264,-1.82,-1.8193,-1.827,-1.827,-1.827,-1.827,-1.827,-1.827,-1.8204,-1.8231,-1.8224,-1.8251,-1.825,-1.8267,-1.8272,-1.8276,-1.8278,-1.8298,-1.8308,-1.8303,-1.8302,-1.8313,-1.8323,-1.8321,-1.8327,-1.8341,-1.8336,-1.8277,-1.8268,-1.826,-1.8253,-1.8342,-1.8342,-1.8399,-1.84,-1.84]},{"header":{"parameterUnit":"m.s-1","parameterCategory":1,"la1":30.2991,"la2":30.254,"lo1":-89.0895,"lo2":-89.0444,"dy":0.0017,"dx":0.0017,"nx":28,"ny":28,"refTime":"2023-11-11T09:00:00:Z","depth":0,"parameterNumber":3,"parameterNumberName":"V-component_of_WINDS"},"data":[0,0,0,0,0,0,0,0,0,0,0,0,0,0,0,0,0,0,0,0,0,0,0,0,0,0,0,0,0,0,0,0,0,0,0,0,0,0,0,0,0,0,0,0,0,0,0,0,0,0,0,0,0,0,0,0,0,0,-3.4359,-3.436,0,-3.4411,-3.4412,-3.4412,-3.4392,-3.4391,-3.439,-3.4389,-3.4438,-3.444,-3.4443,0,0,0,0,0,0,0,0,0,0,0,0,0,-3.424,-3.4242,-3.4359,-3.436,-3.4361,-3.4411,-3.4412,-3.4413,-3.4393,-3.4391,-3.439,-3.4388,-3.4437,-3.444,-3.4443,0,0,0,0,0,0,0,0,0,0,0,0,0,-3.4291,-3.4243,-3.4359,-3.4357,-3.4357,-3.4411,-3.4412,-3.4413,-3.4393,-3.4391,-3.4389,-3.4388,-3.4436,-3.444,-3.4443,-3.4501,0,0,-3.4455,-3.4456,0,0,0,0,0,0,0,0,-3.4288,-3.4296,-3.4357,-3.4357,-3.4358,-3.4394,-3.4388,-3.4442,-3.4393,-3.4379,-3.4389,-3.4387,-3.4425,-3.4429,-3.4442,-3.4504,-3.4506,-3.4455,-3.4457,-3.4459,-3.446,0,0,0,0,0,0,0,-3.4285,-3.4293,-3.438,-3.4358,-3.4358,-3.4352,-3.4358,-3.4398,-3.4411,-3.438,-3.4379,-3.4386,-3.4424,-3.4439,-3.4443,-3.4507,-3.4455,-3.4458,-3.446,-3.4462,-3.4619,-3.4621,0,0,0,0,0,0,-3.4282,-3.4291,-3.4378,-3.4381,-3.4318,-3.4356,-3.4362,-3.4384,-3.4411,-3.4413,-3.4387,-3.4385,-3.4434,-3.4439,-3.4445,-3.4516,-3.4459,-3.4462,-3.4464,-3.4617,-3.4619,-3.4622,0,0,0,0,0,0,-3.4279,-3.429,-3.4376,-3.4336,-3.4346,-3.436,-3.4385,-3.4386,-3.4401,-3.4416,-3.4418,-3.44,-3.4433,-3.444,-3.4488,-3.4517,-3.4464,-3.4467,-3.4615,-3.4618,-3.462,-3.4657,0,0,0,0,0,0,-3.4276,-3.4289,-3.4312,-3.4336,-3.4349,-3.4419,-3.4386,-3.4388,-3.4407,-3.4404,-3.4428,-3.4431,-3.4432,-3.4483,-3.4492,-3.4521,-3.447,-3.4612,-3.4616,-3.4619,-3.4654,-3.4661,-3.4668,0,0,0,0,0,-3.4272,-3.4319,-3.4313,-3.4324,-3.4378,-3.4421,-3.4428,-3.4429,-3.441,-3.4433,-3.4442,-3.443,-3.4512,-3.4488,-3.4498,-3.4529,-3.461,-3.4615,-3.4619,-3.465,-3.466,-3.4668,0,0,0,0,0,0,-3.4296,-3.4322,-3.4316,-3.4373,-3.4395,-3.4418,-3.4447,-3.4439,-3.4466,-3.4462,-3.4461,-3.4467,-3.4517,-3.4527,-3.45,-3.4587,-3.4558,-3.4565,-3.4579,-3.4588,-3.4595,-3.4591,-3.4473,0,0,0,0,0,-3.4308,-3.4343,-3.4363,-3.4411,-3.4423,-3.4433,-3.4452,-3.4451,-3.4474,-3.4482,-3.4496,-3.4517,-3.4548,-3.4568,-3.4597,-3.4655,-3.466,-3.4681,-3.4688,-3.4694,-3.47,-3.4732,-3.4742,-3.4636,-3.4636,-3.4636,0,0,-3.4333,-3.4352,-3.4373,-3.4417,-3.4434,-3.4469,-3.4441,-3.4478,-3.4504,-3.4488,-3.4535,-3.4545,-3.4569,-3.4622,-3.4646,-3.4632,-3.473,-3.4699,-3.4704,-3.4707,-3.4738,-3.4748,-3.4756,-3.4639,-3.4639,-3.4638,0,0,-3.4398,-3.4415,-3.4458,-3.4476,-3.4503,-3.451,-3.452,-3.4544,-3.4551,-3.4598,-3.4587,-3.4616,-3.4669,-3.4687,-3.4703,-3.4774,-3.4764,-3.4783,-3.4821,-3.4852,-3.4861,-3.4868,-3.4895,-3.4904,-3.4789,-3.4789,-3.4789,0,-3.4425,-3.4479,-3.4481,-3.452,-3.4539,-3.4528,-3.4571,-3.4588,-3.4622,-3.4635,-3.4619,-3.4686,-3.4701,-3.4759,-3.4777,-3.4789,-3.4801,-3.4781,-3.4859,-3.4867,-3.4874,-3.4899,-3.4909,-3.4792,-3.4791,-3.4791,-3.4791,0,-3.4512,-3.4549,-3.458,-3.4616,-3.4639,-3.468,-3.4687,-3.4709,-3.4707,-3.4714,-3.4763,-3.478,-3.4813,-3.4827,-3.4824,-3.4885,-3.4875,-3.4859,-3.4831,-3.4886,-3.491,-3.492,-3.4795,-3.4794,-3.4793,-3.4793,0,0,-3.4594,-3.4631,-3.4642,-3.4659,-3.4688,-3.4716,-3.4756,-3.479,-3.481,-3.4833,-3.4867,-3.4912,-3.4898,-3.4916,-3.4915,-3.4942,-3.4999,-3.4923,-3.4924,-3.4938,-3.5068,-3.5081,-3.5092,-3.4992,-3.4994,-3.4995,-3.5067,0,-3.4661,-3.4734,-3.4737,-3.4802,-3.4837,-3.4826,-3.4861,-3.4882,-3.4891,-3.492,-3.4928,-3.4961,-3.4939,-3.495,-3.4977,-3.4987,-3.5026,-3.4981,-3.5023,-3.5025,-3.5019,-3.5105,-3.5118,-3.5185,-3.5076,-3.5078,-3.5079,0,-3.475,-3.4779,-3.4849,-3.4874,-3.4889,-3.492,-3.4952,-3.498,-3.5004,-3.5008,-3.5029,-3.5023,-3.5063,-3.5033,-3.5088,-3.5058,-3.5075,-3.5082,-3.5085,-3.509,-3.5056,-3.5113,-3.5206,-3.5217,-3.5093,-3.5092,-3.5091,0,-3.4804,-3.486,-3.491,-3.4924,-3.4954,-3.4977,-3.499,-3.5012,-3.5032,-3.5059,-3.5073,-3.5103,-3.512,-3.5143,-3.5146,-3.5124,-3.5202,-3.5172,-3.5207,-3.5207,-3.5225,-3.5224,-3.5323,-3.5234,-3.5234,-3.5233,-3.5233,0,-3.488,-3.4924,-3.4935,-3.4966,-3.5014,-3.5016,-3.5063,-3.5074,-3.5094,-3.5126,-3.5117,-3.5147,-3.5148,-3.5178,-3.5181,-3.5227,-3.5234,-3.5238,-3.5238,-3.524,-3.524,-3.5252,-3.5248,-3.5236,-3.5235,-3.5235,-3.5234,0,-3.495,-3.4959,-3.5012,-3.5037,-3.5044,-3.5079,-3.5099,-3.5128,-3.5135,-3.5176,-3.5185,-3.5197,-3.5232,-3.5237,-3.5277,-3.5279,-3.5335,-3.5329,-3.5328,-3.5327,-3.5363,-3.536,-3.5474,-3.549,-3.5389,-3.539,-3.5391,0,-3.4998,-3.5032,-3.5061,-3.5083,-3.5098,-3.5132,-3.5154,-3.5157,-3.5179,-3.5209,-3.5234,-3.5268,-3.5296,-3.5353,-3.5364,-3.5395,-3.5391,-3.5429,-3.5396,-3.5396,-3.5393,-3.5392,-3.5396,-3.5436,-3.5437,-3.5438,-3.5439,0,-3.5084,-3.5088,-3.512,-3.5154,-3.518,-3.5206,-3.5231,-3.5249,-3.5255,-3.528,-3.5317,-3.5339,-3.5381,-3.5416,-3.5447,-3.5459,-3.545,-3.5449,-3.5459,-3.5461,-3.546,-3.5462,-3.5347,-3.5447,-3.5446,-3.5445,-3.5445,-3.5445,-3.5146,-3.5176,-3.5201,-3.5237,-3.5257,-3.528,-3.5309,-3.5321,-3.5352,-3.5388,-3.5387,-3.5428,-3.545,-3.5491,-3.5506,-3.5537,-3.5524,-3.5539,-3.5542,-3.5546,-3.555,-3.5454,-3.5542,-3.5542,-3.5542,-3.5542,-3.5541,0,-3.5233,-3.5249,-3.5282,-3.5318,-3.5347,-3.5337,-3.5364,-3.5388,-3.5424,-3.5447,-3.5475,-3.5517,-3.5551,-3.5565,-3.5598,-3.562,-3.5617,-3.5629,-3.5628,-3.5631,-3.5559,-3.5548,-3.5631,-3.5631,-3.5631,-3.5631,-3.5631,-3.5631,-3.5281,-3.5332,-3.5338,-3.5398,-3.5413,-3.5454,-3.5471,-3.5492,-3.551,-3.5559,-3.5587,-3.5597,-3.5616,-3.565,-3.568,-3.5683,-3.5696,-3.571,-3.5711,-3.5644,-3.5636,-3.5627,-3.5617,-3.5712,-3.5713,-3.5781,-3.5781,-3.5782]}]]